TimeCDT,TemperatureF,Dew PointF,Humidity,Sea Level PressureIn,VisibilityMPH,Wind Direction,Wind SpeedMPH,Gust SpeedMPH,PrecipitationIn,Events,Conditions,WindDirDegrees,DateUTC
12:55 AM,66.6,66.4,99,30.01,10.0,Calm,Calm,-,N/A,,Mostly Cloudy,0,2012-10-03 05:55:00
1:55 AM,66.7,66.7,100,30.01,10.0,Calm,Calm,-,N/A,,Mostly Cloudy,0,2012-10-03 06:55:00
2:55 AM,67.6,67.6,100,30.01,10.0,Calm,Calm,-,N/A,,Overcast,0,2012-10-03 07:55:00
3:55 AM,67.8,67.8,100,30.02,10.0,NNE,5.8,-,N/A,,Mostly Cloudy,20,2012-10-03 08:55:00
4:55 AM,67.3,67.3,100,30.04,10.0,Calm,Calm,-,N/A,,Mostly Cloudy,0,2012-10-03 09:55:00
5:55 AM,66.9,66.9,100,30.06,10.0,North,3.5,-,N/A,,Scattered Clouds,360,2012-10-03 10:55:00
6:55 AM,65.8,65.8,100,30.07,10.0,NNE,4.6,-,N/A,,Clear,30,2012-10-03 11:55:00
7:55 AM,67.8,67.8,100,30.09,10.0,NE,4.6,-,N/A,,Clear,50,2012-10-03 12:55:00
8:55 AM,72.5,71.1,95,30.11,10.0,ENE,3.5,-,N/A,,Partly Cloudy,60,2012-10-03 13:55:00
9:55 AM,74.1,71.8,92,30.12,10.0,NNE,6.9,-,N/A,,Scattered Clouds,30,2012-10-03 14:55:00
10:55 AM,76.1,72.1,87,30.12,10.0,NNE,5.8,-,N/A,,Scattered Clouds,30,2012-10-03 15:55:00
11:55 AM,77.9,72.1,82,30.12,10.0,NNE,8.1,-,N/A,,Mostly Cloudy,20,2012-10-03 16:55:00
12:55 PM,77.2,72.3,85,30.10,10.0,NE,4.6,-,N/A,,Mostly Cloudy,40,2012-10-03 17:55:00
1:55 PM,78.1,70.9,78,30.09,10.0,ENE,4.6,-,N/A,,Mostly Cloudy,60,2012-10-03 18:55:00
2:55 PM,78.6,72.3,81,30.08,10.0,East,3.5,-,N/A,,Partly Cloudy,90,2012-10-03 19:55:00
3:55 PM,77.2,72.3,85,30.09,10.0,East,5.8,-,N/A,,Scattered Clouds,80,2012-10-03 20:55:00
4:25 PM,77.0,71.6,83,30.10,10.0,East,4.6,-,N/A,Rain,Light Rain,90,2012-10-03 21:25:00
4:36 PM,77.0,71.6,83,30.09,10.0,East,5.8,-,N/A,,Scattered Clouds,80,2012-10-03 21:36:00
4:55 PM,76.6,73.2,89,30.10,10.0,East,4.6,-,0.00,,Scattered Clouds,80,2012-10-03 21:55:00
5:55 PM,75.0,73.6,95,30.10,10.0,ENE,4.6,-,N/A,,Partly Cloudy,70,2012-10-03 22:55:00
6:55 PM,73.8,72.7,96,30.12,10.0,East,3.5,-,N/A,,Scattered Clouds,90,2012-10-03 23:55:00
7:55 PM,72.7,72.7,100,30.13,10.0,ESE,6.9,-,N/A,,Scattered Clouds,110,2012-10-04 00:55:00
8:55 PM,71.4,71.1,99,30.14,10.0,East,6.9,-,N/A,,Mostly Cloudy,90,2012-10-04 01:55:00
9:55 PM,70.5,70.5,100,30.15,10.0,East,5.8,-,N/A,,Partly Cloudy,90,2012-10-04 02:55:00
10:55 PM,69.6,69.6,100,30.15,10.0,ENE,6.9,-,N/A,,Clear,70,2012-10-04 03:55:00
11:18 PM,69.8,69.8,100,30.15,10.0,Variable,5.8,-,N/A,,Mostly Cloudy,0,2012-10-04 04:18:00
11:22 PM,69.8,69.8,100,30.15,10.0,East,5.8,-,N/A,,Mostly Cloudy,80,2012-10-04 04:22:00
11:30 PM,69.8,69.8,100,30.15,10.0,ENE,5.8,-,N/A,,Scattered Clouds,70,2012-10-04 04:30:00
11:55 PM,69.3,69.3,100,30.14,10.0,ENE,5.8,-,N/A,,Clear,70,2012-10-04 04:55:00